Home > Weather > Lexington > Past weeks

Flag for USA Weather for the Past 2 Weeks in Lexington, Virginia, USA

Now
43 °F

Thundershowers. Low clouds.


Feels Like: 39 °F
Forecast: 51 / 55 °F
Wind: 7 mph from Northwest

Location: Hot Springs / Ingalls

Current Time: May 5, 2016 at 6:28:20 PM

Latest Report: May 5, 2016 at 5:55 PM


Visibility: 0 mi

Pressure: 29.63 "Hg

Humidity: 100%

Dew Point: 43 °F

Location of LexingtonLocation

Historic Weather in Lexington — Graph

°F

Lexington Temperature Yesterday

Maximum temperature yesterday: 56 °F (at 2:55 PM)
Minimum temperature yesterday: 44 °F (at 6:15 AM)
Average temperature yesterday: 49 °F

High & Low Weather Summary for the Past Weeks

 TemperatureHumidityPressure
High75 °F (Apr 26, 4:15 PM)100% (Apr 22, 10:55 AM)30.22 "Hg (Apr 22, 10:55 AM)
Low40 °F (May 5, 1:15 PM)26% (Apr 20, 5:15 PM)29.59 "Hg (May 5, 5:35 AM)
Average56 °F76%29.97 "Hg
* Reported Apr 20 5:15 PM — May 5 5:15 PM, Lexington, Weather by CustomWeather, © 2016

Note: Actual official high and low records may vary slightly from our data, if they occured in-between our weather recording intervals... More about our weather records

Advertising

Lexington Weather History for the Previous 24 Hours

Scroll right to see more
 ConditionsComfort  
Time TempWeatherWind HumidityBarometerVisibility
5:15 PM
Thu, May 5
43 °FRain. Low clouds.12 mph100%29.63 "Hg0 mi
4:55 PM42 °FLight rain. Low clouds.9 mph100%29.63 "Hg0 mi
4:35 PM42 °FLight rain. Low clouds.12 mph100%29.63 "Hg0 mi
4:15 PM42 °FLight rain. Low clouds.10 mph100%29.63 "Hg0 mi
3:55 PM42 °FLight rain. Low clouds.10 mph100%29.62 "Hg0 mi
3:15 PM42 °FLight rain. Low clouds.10 mph100%29.63 "Hg0 mi
2:55 PM42 °FLight rain. Low clouds.13 mph100%29.63 "Hg0 mi
2:35 PM41 °FLight rain. Low clouds.10 mph100%29.62 "Hg0 mi
2:15 PM40 °FLight rain. Low clouds.13 mph100%29.62 "Hg0 mi
1:55 PM40 °FLight rain. Low clouds.9 mph100%29.62 "Hg0 mi
1:15 PM40 °FLight rain. Low clouds.9 mph100%29.63 "Hg1 mi
12:55 PM40 °FRain. Low clouds.8 mph100%29.63 "Hg0 mi
12:35 PM40 °FLight rain. Low clouds.10 mph100%29.64 "Hg2 mi
12:15 PM40 °FRain. Mostly cloudy.12 mph100%29.64 "Hg10 mi
11:55 AM40 °FLight rain. Low clouds.12 mph100%29.64 "Hg10 mi
11:35 AM40 °FLight rain. Low clouds.12 mph100%29.64 "Hg10 mi
11:15 AM41 °FDrizzle. Mostly cloudy.10 mph100%29.63 "Hg10 mi
10:55 AM41 °FDrizzle. Cloudy.12 mph100%29.63 "Hg10 mi
10:35 AM42 °FRain. Cloudy.12 mph100%29.63 "Hg10 mi
10:15 AM42 °FMore clouds than sun.10 mph100%29.63 "Hg10 mi
9:55 AM42 °FDrizzle. More clouds than sun.10 mph100%29.63 "Hg10 mi
9:35 AM42 °FMostly cloudy.9 mph100%29.63 "Hg10 mi
9:15 AM42 °FMostly cloudy.13 mph100%29.63 "Hg10 mi
8:55 AM42 °FMostly cloudy.8 mph100%29.62 "Hg10 mi
8:15 AM42 °FDrizzle. More clouds than sun.7 mph100%29.62 "Hg4 mi
7:55 AM42 °FMore clouds than sun.7 mph100%29.61 "Hg10 mi
7:35 AM42 °FFog.8 mph100%29.61 "Hg0 mi
7:15 AM42 °FFog.8 mph100%29.61 "Hg0 mi
6:55 AM42 °FFog.7 mph100%29.60 "Hg1 mi
6:35 AM42 °FFog.7 mph100%29.60 "Hg1 mi
6:15 AM42 °FMostly cloudy.6 mph100%29.59 "Hg10 mi
5:55 AM42 °FMostly cloudy.7 mph100%29.59 "Hg10 mi
5:35 AM42 °FThundershowers. Overcast.5 mph100%29.59 "Hg10 mi
5:15 AM42 °FThundershowers. Overcast.6 mph100%29.60 "Hg7 mi
4:55 AM42 °FMostly cloudy.8 mph100%29.60 "Hg10 mi
4:35 AM43 °FMostly cloudy.6 mph100%29.61 "Hg10 mi
4:15 AM43 °FOvercast.6 mph100%29.61 "Hg10 mi
3:55 AM43 °FDrizzle. Overcast.6 mph100%29.61 "Hg10 mi
3:35 AM43 °FDrizzle. Overcast.6 mph100%29.61 "Hg10 mi
3:15 AM43 °FMostly cloudy.3 mph100%29.62 "Hg10 mi
2:55 AM43 °FOvercast.6 mph100%29.63 "Hg10 mi
2:35 AM43 °FLight rain. Overcast.6 mph100%29.63 "Hg7 mi
2:15 AM43 °FHeavy rain. Mostly cloudy.7 mph100%29.64 "Hg7 mi
1:55 AM44 °FDrizzle. Mostly cloudy.8 mph93%29.65 "Hg10 mi
1:15 AM44 °FOvercast.8 mph87%29.66 "Hg10 mi
12:55 AM44 °FMostly cloudy.9 mph87%29.66 "Hg10 mi
12:35 AM45 °FMostly cloudy.10 mph81%29.66 "Hg10 mi
12:15 AM45 °FOvercast.9 mph92%29.67 "Hg10 mi
11:55 PM
Wed, May 4
45 °FMostly cloudy.12 mph96%29.67 "Hg10 mi
11:35 PM45 °FOvercast.9 mph88%29.67 "Hg10 mi
11:15 PM46 °FPassing clouds.14 mph85%29.67 "Hg10 mi
10:55 PM46 °FPassing clouds.13 mph79%29.67 "Hg10 mi
10:35 PM49 °FMostly cloudy.13 mph69%29.67 "Hg10 mi
10:15 PM49 °FMostly cloudy.6 mph66%29.67 "Hg10 mi
9:55 PM49 °FMostly cloudy.7 mph68%29.67 "Hg10 mi
9:35 PM49 °FMostly cloudy.7 mph72%29.67 "Hg10 mi
9:15 PM49 °FMostly cloudy.7 mph72%29.67 "Hg10 mi
8:55 PM50 °FPartly sunny.9 mph66%29.67 "Hg10 mi
8:35 PM50 °FScattered clouds.5 mph61%29.66 "Hg10 mi
8:15 PM50 °FScattered clouds.3 mph61%29.66 "Hg10 mi
7:55 PM51 °FOvercast.6 mph58%29.66 "Hg10 mi
7:35 PM52 °FOvercast.9 mph57%29.66 "Hg10 mi
7:15 PM53 °FMore clouds than sun.12 mph56%29.65 "Hg10 mi
6:55 PM53 °FOvercast.10 mph56%29.65 "Hg10 mi
6:35 PM53 °FOvercast.10 mph57%29.65 "Hg10 mi
6:15 PM53 °FPartly sunny.10 mph59%29.65 "Hg10 mi
Weather by CustomWeather, © 2016

See weather overviewHow to use our weather pages